| time (UTC) | temp F | wind direction | speed knots | gust knots | rain 1hr in | rain 24hr in | rain mn in | humidity % | barometer mb |
| 20260503221352 | 47 | 18 | 1.7 | 4.3 | 0.00 | 0.37 | 0.33 | 93 | 1012.5 |
| 20260503220353 | 47 | 352 | 0.9 | 2.6 | 0.00 | 0.39 | 0.33 | 92 | 1012.5 |
| 20260503215852 | 47 | 13 | 0.9 | 1.7 | 0.00 | 0.39 | 0.33 | 92 | 1012.4 |
| 20260503215352 | 47 | 25 | 0.9 | 2.6 | 0.00 | 0.39 | 0.33 | 92 | 1012.3 |
| 20260503214853 | 47 | 80 | 0.9 | 2.6 | 0.00 | 0.40 | 0.33 | 92 | 1012.4 |
| 20260503214352 | 47 | 15 | 1.7 | 2.6 | 0.00 | 0.41 | 0.33 | 92 | 1012.4 |
| 20260503213853 | 47 | 75 | 0.9 | 2.6 | 0.00 | 0.42 | 0.33 | 92 | 1012.3 |
| 20260503212352 | 47 | 125 | 0.9 | 1.7 | 0.00 | 0.44 | 0.33 | 92 | 1012.3 |
| 20260503211853 | 47 | 44 | 1.7 | 4.3 | 0.00 | 0.44 | 0.33 | 92 | 1012.4 |
| 20260503210854 | 47 | 96 | 0.9 | 2.6 | 0.00 | 0.45 | 0.33 | 92 | 1012.3 |
| 20260503210353 | 47 | 96 | 0.9 | 2.6 | 0.00 | 0.46 | 0.33 | 92 | 1012.2 |
| 20260503205852 | 47 | 105 | 0.0 | 1.7 | 0.00 | 0.46 | 0.33 | 92 | 1012.2 |
| 20260503204853 | 47 | 236 | 0.9 | 2.6 | 0.00 | 0.46 | 0.33 | 92 | 1012.1 |
| 20260503204352 | 47 | 330 | 1.7 | 2.6 | 0.00 | 0.46 | 0.33 | 92 | 1012.1 |
| 20260503203853 | 47 | 195 | 0.9 | 2.6 | 0.00 | 0.46 | 0.33 | 92 | 1012.0 |
| 20260503203353 | 47 | 198 | 1.7 | 4.3 | 0.00 | 0.46 | 0.33 | 92 | 1011.9 |
| 20260503201852 | 47 | 142 | 3.5 | 7.0 | 0.00 | 0.46 | 0.33 | 92 | 1011.7 |
| 20260503201352 | 47 | 319 | 0.9 | 2.6 | 0.00 | 0.46 | 0.33 | 92 | 1011.7 |
| 20260503200352 | 47 | 246 | 0.9 | 2.6 | 0.00 | 0.46 | 0.33 | 92 | 1011.6 |
| 20260503195853 | 47 | 227 | 1.7 | 2.6 | 0.00 | 0.46 | 0.33 | 92 | 1011.5 |
| 20260503195352 | 48 | 226 | 2.6 | 4.3 | 0.00 | 0.46 | 0.33 | 92 | 1011.3 |
| 20260503194852 | 48 | 345 | 0.9 | 4.3 | 0.00 | 0.46 | 0.33 | 92 | 1011.4 |
| 20260503194352 | 48 | 338 | 0.9 | 2.6 | 0.00 | 0.46 | 0.33 | 92 | 1011.3 |
| 20260503193852 | 48 | 255 | 1.7 | 4.3 | 0.00 | 0.46 | 0.33 | 92 | 1011.2 |
| 20260503193352 | 48 | 17 | 0.9 | 2.6 | 0.00 | 0.46 | 0.33 | 92 | 1011.2 |
| 20260503191853 | 48 | 164 | 1.7 | 7.0 | 0.00 | 0.46 | 0.33 | 92 | 1010.9 |
| 20260503191354 | 48 | 244 | 1.7 | 2.6 | 0.00 | 0.46 | 0.33 | 91 | 1010.9 |
| 20260503190853 | 48 | 9 | 0.0 | 1.7 | 0.00 | 0.46 | 0.33 | 91 | 1010.9 |
| 20260503190353 | 48 | 9 | 0.9 | 2.6 | 0.00 | 0.46 | 0.33 | 92 | 1010.8 |
| 20260503185853 | 48 | 28 | 0.9 | 4.3 | 0.00 | 0.46 | 0.33 | 92 | 1010.7 |
| 20260503185352 | 48 | 243 | 0.9 | 4.3 | 0.00 | 0.46 | 0.33 | 92 | 1010.7 |
| 20260503183853 | 48 | 86 | 0.9 | 1.7 | 0.00 | 0.46 | 0.33 | 92 | 1010.6 |
| 20260503183352 | 48 | 12 | 2.6 | 7.0 | 0.00 | 0.46 | 0.33 | 92 | 1010.5 |
| 20260503182853 | 48 | 75 | 0.9 | 5.2 | 0.00 | 0.46 | 0.33 | 92 | 1010.4 |
| 20260503182352 | 48 | 21 | 0.0 | 2.6 | 0.00 | 0.46 | 0.33 | 92 | 1010.4 |
| 20260503181852 | 48 | 41 | 0.9 | 5.2 | 0.00 | 0.46 | 0.33 | 92 | 1010.4 |
| 20260503181352 | 48 | 357 | 1.7 | 5.2 | 0.00 | 0.46 | 0.33 | 92 | 1010.4 |
| 20260503180852 | 49 | 28 | 1.7 | 5.2 | 0.00 | 0.46 | 0.33 | 92 | 1010.4 |
| 20260503180352 | 49 | 10 | 1.7 | 4.3 | 0.00 | 0.46 | 0.33 | 92 | 1010.3 |
| 20260503175852 | 49 | 49 | 1.7 | 4.3 | 0.00 | 0.46 | 0.33 | 92 | 1010.3 |
| 20260503175352 | 49 | 55 | 0.0 | 1.7 | 0.00 | 0.46 | 0.33 | 92 | 1010.2 |
| 20260503174852 | 49 | 47 | 0.9 | 5.2 | 0.00 | 0.46 | 0.33 | 92 | 1010.1 |
| 20260503173852 | 49 | 356 | 0.9 | 4.3 | 0.00 | 0.46 | 0.33 | 92 | 1010.1 |
| 20260503173352 | 49 | 306 | 0.9 | 2.6 | 0.00 | 0.46 | 0.33 | 92 | 1010.1 |
| 20260503172352 | 49 | 103 | 1.7 | 7.0 | 0.00 | 0.46 | 0.33 | 92 | 1010.0 |
| 20260503171352 | 49 | 8 | 1.7 | 5.2 | 0.00 | 0.46 | 0.33 | 92 | 1009.9 |
| 20260503170853 | 49 | 350 | 0.9 | 4.3 | 0.00 | 0.46 | 0.33 | 92 | 1010.0 |
| 20260503170352 | 49 | 354 | 2.6 | 6.1 | 0.00 | 0.46 | 0.33 | 92 | 1009.9 |
| 20260503150853 | 51 | 17 | 0.9 | 7.0 | 0.00 | 0.46 | 0.33 | 92 | 1009.5 |
| 20260503150352 | 51 | 348 | 2.6 | 6.1 | 0.00 | 0.46 | 0.33 | 91 | 1009.4 |
| 20260503131352 | 51 | 18 | 1.7 | 7.0 | 0.00 | 0.46 | 0.33 | 93 | 1009.1 |
| 20260503130852 | 51 | 23 | 1.7 | 5.2 | 0.00 | 0.46 | 0.33 | 93 | 1009.1 |
| 20260503130352 | 51 | 4 | 1.7 | 6.1 | 0.01 | 0.46 | 0.33 | 93 | 1009.1 |
| 20260503090352 | 50 | 46 | 2.6 | 7.0 | 0.03 | 0.43 | 0.29 | 94 | 1008.3 |
| 20260503081352 | 50 | 22 | 2.6 | 8.7 | 0.02 | 0.39 | 0.26 | 93 | 1008.3 |
| 20260503080852 | 50 | 13 | 3.5 | 11.3 | 0.02 | 0.39 | 0.26 | 93 | 1008.3 |
| 20260503080352 | 50 | 300 | 1.7 | 7.0 | 0.02 | 0.39 | 0.26 | 93 | 1008.3 |
| 20260503072852 | 50 | 38 | 3.5 | 10.4 | 0.01 | 0.39 | 0.25 | 93 | 1008.0 |
| 20260503072352 | 50 | 6 | 4.3 | 10.4 | 0.00 | 0.38 | 0.24 | 93 | 1007.9 |
| 20260503071852 | 50 | 10 | 2.6 | 8.7 | 0.00 | 0.38 | 0.24 | 93 | 1007.9 |
| 20260503071351 | 50 | 5 | 4.3 | 11.3 | 0.00 | 0.38 | 0.24 | 93 | 1007.8 |
| 20260503070851 | 50 | 1 | 3.5 | 10.4 | 0.00 | 0.38 | 0.24 | 93 | 1007.8 |
| 20260503070351 | 50 | 32 | 2.6 | 8.7 | 0.00 | 0.38 | 0.24 | 93 | 1007.8 |
| 20260503054852 | 50 | 339 | 1.7 | 11.3 | 0.00 | 0.38 | 0.24 | 93 | 1007.5 |
| 20260503052852 | 50 | 13 | 4.3 | 10.4 | 0.00 | 0.38 | 0.24 | 93 | 1007.4 |
| 20260503052351 | 50 | 357 | 1.7 | 8.7 | 0.00 | 0.38 | 0.24 | 93 | 1007.3 |
| 20260503051852 | 50 | 13 | 4.3 | 8.7 | 0.00 | 0.38 | 0.24 | 93 | 1007.3 |
| 20260503051352 | 50 | 359 | 4.3 | 7.8 | 0.00 | 0.38 | 0.24 | 93 | 1007.3 |
| 20260503050852 | 50 | 46 | 3.5 | 8.7 | 0.00 | 0.38 | 0.24 | 93 | 1007.4 |
| 20260503050352 | 50 | 30 | 1.7 | 7.8 | 0.00 | 0.38 | 0.24 | 93 | 1007.4 |
| 20260503045851 | 50 | 37 | 2.6 | 12.2 | 0.00 | 0.38 | 0.24 | 93 | 1007.4 |
| 20260503044851 | 50 | 71 | 1.7 | 8.7 | 0.01 | 0.38 | 0.24 | 93 | 1007.4 |
| 20260503044351 | 50 | 22 | 3.5 | 10.4 | 0.01 | 0.38 | 0.24 | 93 | 1007.4 |
| 20260503043852 | 50 | 36 | 4.3 | 7.8 | 0.01 | 0.38 | 0.24 | 93 | 1007.4 |
| 20260503043351 | 50 | 23 | 2.6 | 8.7 | 0.01 | 0.38 | 0.24 | 93 | 1007.4 |
| 20260503042351 | 50 | 73 | 2.6 | 7.8 | 0.02 | 0.38 | 0.24 | 93 | 1007.4 |
| 20260503041851 | 50 | 0 | 1.7 | 7.8 | 0.02 | 0.38 | 0.24 | 93 | 1007.4 |
| 20260503041351 | 51 | 26 | 3.5 | 10.4 | 0.02 | 0.38 | 0.24 | 93 | 1007.5 |
| 20260503040851 | 51 | 39 | 4.3 | 8.7 | 0.02 | 0.38 | 0.24 | 93 | 1007.4 |
| 20260503040352 | 51 | 11 | 2.6 | 6.1 | 0.02 | 0.38 | 0.24 | 93 | 1007.6 |
| 20260503035851 | 51 | 329 | 1.7 | 10.4 | 0.02 | 0.38 | 0.24 | 93 | 1007.6 |
| 20260503035351 | 51 | 338 | 2.6 | 7.8 | 0.02 | 0.38 | 0.24 | 93 | 1007.7 |
| 20260503034851 | 51 | 6 | 1.7 | 7.0 | 0.02 | 0.37 | 0.24 | 93 | 1007.9 |
| 20260503034351 | 51 | 9 | 0.9 | 4.3 | 0.02 | 0.37 | 0.24 | 93 | 1008.0 |
| 20260503032851 | 51 | 307 | 1.7 | 5.2 | 0.02 | 0.37 | 0.24 | 93 | 1008.1 |
| 20260503032351 | 51 | 23 | 1.7 | 7.0 | 0.02 | 0.36 | 0.23 | 93 | 1008.2 |
| 20260503031851 | 51 | 32 | 1.7 | 4.3 | 0.02 | 0.36 | 0.23 | 93 | 1008.2 |
| 20260503030851 | 51 | 201 | 0.9 | 1.7 | 0.02 | 0.35 | 0.22 | 93 | 1008.4 |
| 20260503030351 | 51 | 24 | 0.9 | 5.2 | 0.02 | 0.35 | 0.22 | 93 | 1008.4 |
| 20260503025852 | 51 | 165 | 1.7 | 4.3 | 0.03 | 0.35 | 0.22 | 94 | 1008.4 |
| 20260503025351 | 51 | 343 | 1.7 | 7.0 | 0.03 | 0.35 | 0.22 | 94 | 1008.4 |
| 20260503024851 | 51 | 359 | 1.7 | 2.6 | 0.03 | 0.35 | 0.22 | 94 | 1008.4 |
| 20260503024351 | 51 | 27 | 0.0 | 2.6 | 0.03 | 0.35 | 0.22 | 94 | 1008.4 |
| 20260503023852 | 51 | 193 | 0.9 | 2.6 | 0.04 | 0.35 | 0.22 | 94 | 1008.5 |
| 20260503023351 | 51 | 193 | 0.9 | 4.3 | 0.03 | 0.35 | 0.21 | 94 | 1008.5 |
| 20260503022851 | 51 | 47 | 1.7 | 4.3 | 0.03 | 0.35 | 0.21 | 94 | 1008.6 |
| 20260503022351 | 51 | 112 | 0.9 | 6.1 | 0.02 | 0.34 | 0.20 | 94 | 1008.5 |
| 20260503021852 | 51 | 15 | 0.9 | 4.3 | 0.03 | 0.34 | 0.20 | 94 | 1008.5 |
| 20260503021352 | 51 | 357 | 1.7 | 4.3 | 0.03 | 0.33 | 0.20 | 94 | 1008.7 |
| 20260503020851 | 51 | 23 | 0.9 | 4.3 | 0.03 | 0.33 | 0.20 | 94 | 1008.7 |
| 20260503020351 | 51 | 9 | 1.7 | 5.2 | 0.04 | 0.33 | 0.20 | 94 | 1008.8 |
| 20260503015851 | 51 | 342 | 0.9 | 2.6 | 0.04 | 0.32 | 0.19 | 94 | 1008.8 |
| 20260503014851 | 51 | 343 | 1.7 | 2.6 | 0.05 | 0.32 | 0.19 | 94 | 1008.9 |
| 20260503013852 | 51 | 75 | 1.7 | 2.6 | 0.06 | 0.31 | 0.18 | 93 | 1009.0 |
| 20260503013351 | 51 | 14 | 2.6 | 7.0 | 0.06 | 0.31 | 0.18 | 93 | 1009.1 |
| 20260503012851 | 51 | 10 | 1.7 | 5.2 | 0.06 | 0.31 | 0.18 | 93 | 1009.1 |
| 20260503012351 | 51 | 22 | 1.7 | 5.2 | 0.07 | 0.31 | 0.18 | 93 | 1009.1 |
| 20260503011851 | 51 | 0 | 2.6 | 5.2 | 0.07 | 0.31 | 0.17 | 93 | 1009.2 |
| 20260503011351 | 51 | 355 | 1.7 | 2.6 | 0.07 | 0.30 | 0.17 | 93 | 1009.3 |
| 20260503010851 | 51 | 0 | 1.7 | 2.6 | 0.07 | 0.30 | 0.17 | 93 | 1009.3 |
| 20260503010352 | 51 | 24 | 1.7 | 6.1 | 0.07 | 0.29 | 0.16 | 93 | 1009.4 |
| 20260503005851 | 51 | 26 | 0.0 | 1.7 | 0.07 | 0.28 | 0.15 | 93 | 1009.5 |
| 20260503003851 | 51 | 14 | 1.7 | 4.3 | 0.07 | 0.26 | 0.13 | 93 | 1009.6 |
| 20260503003350 | 51 | 12 | 0.9 | 2.6 | 0.06 | 0.25 | 0.12 | 93 | 1009.7 |
| 20260503002852 | 51 | 358 | 1.7 | 11.3 | 0.07 | 0.25 | 0.12 | 93 | 1009.7 |
| 20260503002351 | 51 | 11 | 0.9 | 2.6 | 0.07 | 0.24 | 0.11 | 93 | 1009.7 |
| 20260503001851 | 51 | 354 | 2.6 | 5.2 | 0.07 | 0.24 | 0.10 | 93 | 1009.8 |
| 20260503001351 | 51 | 341 | 1.7 | 2.6 | 0.07 | 0.23 | 0.09 | 92 | 1009.9 |
| 20260503000351 | 51 | 8 | 0.9 | 4.3 | 0.08 | 0.22 | 0.09 | 92 | 1010.0 |
| 20260502235851 | 51 | 327 | 2.6 | 6.1 | 0.08 | 0.21 | 0.08 | 92 | 1010.0 |
| 20260502235352 | 51 | 2 | 1.7 | 6.1 | 0.08 | 0.20 | 0.07 | 92 | 1010.1 |
| 20260502234851 | 51 | 3 | 1.7 | 5.2 | 0.08 | 0.20 | 0.06 | 91 | 1010.1 |
| 20260502234352 | 51 | 11 | 1.7 | 5.2 | 0.08 | 0.20 | 0.06 | 91 | 1010.1 |
| 20260502233852 | 51 | 5 | 2.6 | 5.2 | 0.08 | 0.19 | 0.06 | 91 | 1010.1 |
| 20260502233351 | 52 | 5 | 1.7 | 6.1 | 0.08 | 0.19 | 0.06 | 91 | 1010.2 |
| 20260502232851 | 52 | 2 | 1.7 | 6.1 | 0.08 | 0.18 | 0.05 | 91 | 1010.3 |
| 20260502232351 | 52 | 14 | 1.7 | 5.2 | 0.07 | 0.17 | 0.04 | 91 | 1010.3 |
| 20260502231851 | 52 | 20 | 1.7 | 6.1 | 0.07 | 0.17 | 0.03 | 90 | 1010.4 |
| 20260502231350 | 52 | 19 | 2.6 | 6.1 | 0.06 | 0.16 | 0.02 | 90 | 1010.4 |
| 20260502230934 | 52 | 334 | 1.7 | 5.2 | 0.06 | 0.15 | 0.02 | 89 | 1010.5 |
| 20260502230351 | 52 | 352 | 0.9 | 2.6 | 0.06 | 0.14 | 0.01 | 89 | 1010.7 |
| 20260502225852 | 52 | 35 | 0.9 | 1.7 | 0.06 | 0.13 | 0.13 | 89 | 1010.7 |
| 20260502225352 | 52 | 338 | 0.9 | 2.6 | 0.06 | 0.13 | 0.13 | 89 | 1010.7 |
| 20260502224851 | 52 | 4 | 0.9 | 4.3 | 0.06 | 0.12 | 0.12 | 89 | 1010.7 |
| 20260502224351 | 52 | 9 | 1.7 | 4.3 | 0.06 | 0.12 | 0.12 | 88 | 1010.6 |
| 20260502222852 | 53 | 3 | 0.9 | 2.6 | 0.07 | 0.10 | 0.10 | 88 | 1010.6 |
| 20260502221851 | 53 | 24 | 0.9 | 2.6 | 0.07 | 0.09 | 0.09 | 88 | 1010.7 |